OPS 4682 DEB, 38410

Orbit data source: Space-Track

OPS 4682 DEB, 38410 is space debris in LEO originally from a launch on Sat, 03 Apr 1965 UTC launched from the Air Force Western Test Range (AFWTR). Debris objects in space refer to the collection of defunct objects orbiting the Earth. Examples of debris include non-operational satellites, rocket bodies, and fragments generated from explosions, collisions, or faulty payload assembly.

Loading next visibility...
Identifier
38410, 1965-027DP
Orbit
LEO
Country
Flag of USUS
Related business
Manufacturer
Unknown
Mission
Spacecraft
Bus & Motor
Unknown
Mass
Unknown
Launch date (UTC)
1965-04-03 (61 years ago)
Launch vehicle
Unknown
Launch site
Air Force Western Test Range (AFWTR)
Object type
Payload
Rocket body
Debris
Shape & HBR
Unknown shape, 0.1 m
Radar Cross Section
Medium (>0.1 m² and <1 m²)

Expand to show TLE details & history
Last TLE update: 2 days ago

TLE from 2 days ago
0 OPS 4682 DEB
1 38410U 65027DP  26262.26849573 -.00000233  00000-0 -82320-3 0  9996
2 38410  90.2515  12.9274 0032871 214.8140 145.0831 12.97595677643201
Epoch: 2026-09-19T06:26Z
TLE epoch observation values (Epoch: 2026-09-19T06:26:38.031Z)
Latitude
0.00006°
Longitude
-81.91053°
Altitude
1,295.051 km
Speed
7.199 km/s
True Right ascension
00h 51m 42s
True Declination
0° 00' 00"
Sunlit
Object was in full shadow at epoch
Visualization orbit readout
Latitude
Unknown
Longitude
Unknown
Altitude
Unknown
Speed
Unknown
Apparent Right ascension
Unknown
Apparent Declination
Unknown
Sunlit
N/A
Visualization observer readout
Local Sidereal Time
21:45:59
Azimuth
Unknown
Elevation
Unknown
Doppler factor
Unknown
Orbital elements
Apogee altitude
1,293.788 km
Perigee altitude
1,243.516 km
Semi-major axis
7,646.789 km
Eccentricity
0.00329
Inclination
90.2515°
RAAN
12.9274°
Arg. of periapsis
214.814°
True anomaly
145.29798°
Mean anomaly
145.0831°
Eccentric anomaly
145.19061°
Mean motion
3.24582 °/min
Orbital period
110.91 mins
BSTAR
-0.0008232
Loading maneuver chart data...
Computing Atmospheric mass density...
Loading historical data...
Loading historical data...
Loading historical data...
Loading historical data...
Loading historical data...
Loading historical data...
Loading historical data...

Documentation

Showing up to 5 results
|